Location: El Álamo
(40.2307°N, 3.9945°W)
Time: 15:34:22
(UTC+00:00)

SL-8 Rocket - Pass Details

Date: 19 May 2025
Orbit: 955 x 990 km, 82.9° (Epoch: 22 June)

Event Time Altitude Azimuth Distance (km) Brightness Sun altitude
Rises 21:18:25 0° 357° (N) 3,648 7.8 -17.4°
Reaches altitude 10° 21:21:00 10° 2° (N) 2,696 7.0 -17.8°
Maximum altitude 21:27:01 54° 79° (E) 1,150 4.2 -18.5°
Enters shadow 21:29:41 32° 140° (SE) 1,582 4.5 -18.9°
